Location: Casper
(42.8670°N, 106.3130°W)
Time: 07:05:40
(UTC-06:00)

Daily predictions for brighter satellites

Satellite Brightness Start Highest point End
(mag) Time Altitude Azimuth Time Altitude Azimuth Time Altitude Azimuth
Cosmos 1140 Rocket 4.1 20:50:05 10° N 20:54:58 41° ENE 20:59:50 10° SE
Cosmos 1844 3.8 20:49:44 10° SSW 20:55:30 78° ESE 21:01:19 10° NNE
COSMOS 2487 2.9 20:52:09 10° N 20:55:41 47° ENE 20:59:09 10° SE
Cosmos 1939 Rocket 3.6 20:52:18 10° SE 20:55:51 35° ENE 20:59:29 10° N
Cosmos 407 Rocket 3.8 20:52:23 10° NNW 20:57:39 74° WSW 21:02:57 10° S
Timation 2 Rocket 4.4 20:51:57 10° NNW 20:57:43 46° ENE 21:03:27 10° SE
APEX 4.5 20:55:11 10° SSE 20:58:39 28° ESE 21:02:59 10° NE
Cosmos 1238 Rocket 3.3 20:57:53 10° N 21:01:06 37° E 21:04:52 10° SSE
YAOGAN 11 4.2 20:57:01 10° SSE 21:01:32 73° ENE 21:06:07 10° N
Cosmos 2154 Rocket 4.1 20:57:59 10° S 21:04:02 60° E 21:10:08 10° NNE
Cosmos 2082 Rocket 3.2 21:02:30 10° N 21:07:39 33° NE 21:12:44 10° ESE
SPOT 5 3.9 21:03:30 10° SE 21:08:20 37° ENE 21:13:13 10° N
Cosmos 1184 Rocket 3.2 21:09:01 10° SSE 21:12:11 42° E 21:15:24 10° NNE
Cosmos 1452 Rocket 3.6 21:09:15 10° SSW 21:14:31 89° WNW 21:19:50 10° NNE
Cosmos 1674 Rocket 4.4 21:12:14 10° NNW 21:16:35 53° W 21:20:52 10° S
Lacrosse 5 3.6 21:15:04 10° SE 21:17:01 12° ESE 21:18:58 10° E
H-2A R/B 4.0 21:21:33 10° E 21:24:25 15° ENE 21:27:15 10° NNE
Cosmos 2297 4.0 21:22:04 10° S 21:27:30 48° ESE 21:32:59 10° NE
Cosmos 1606 3.4 21:25:05 10° NNW 21:28:57 58° W 21:32:48 10° S
Okean 2 Rocket 3.1 21:26:32 10° S 21:30:51 57° E 21:35:11 10° NNE
CZ-4 DEB 4.4 21:30:25 10° SSW 21:33:19 33° W 21:36:14 10° NNW
Cosmos 1782 Rocket 3.5 21:31:01 10° S 21:35:29 80° E 21:39:59 10° N
Cosmos 1242 Rocket 2.6 21:32:16 10° N 21:35:57 66° E 21:39:00 14° SSE
Meteor 2-13 Rocket 4.5 21:30:27 10° S 21:36:30 63° E 21:42:36 10° NNE
SPOT 1/Viking Rocket 4.2 21:35:56 15° SE 21:39:45 39° ENE 21:44:35 10° N
COS B Rocket 3.3 21:36:14 10° N 21:40:09 75° W 21:43:36 10° S
Intercosmos 25 3.2 21:37:35 11° SSE 21:40:39 46° E 21:43:43 10° NNE
Cosmos 1862 4.2 21:39:54 10° SSW 21:43:53 53° W 21:47:54 10° N
Cosmos 1850 Rocket 4.0 21:39:57 10° NNW 21:45:19 85° ENE 21:49:44 15° SSE
GPS 2-05 Rocket1 4.3 21:42:32 10° WSW 21:45:38 25° S 21:46:56 20° SSE
YAOGAN 6 2.8 21:45:16 21° SE 21:47:18 49° ENE 21:50:44 10° N
EO 1 Delta rocket 4.2 21:42:31 10° N 21:48:27 83° W 21:53:19 10° SSW
USA 229 DEB 3.9 21:41:56 10° NNW 21:49:02 71° NE 21:54:27 19° SE
Cosmos 1975 Rocket 3.2 21:44:47 10° NNW 21:49:07 74° W 21:53:20 11° S
USA 229 3.9 21:42:02 10° NNW 21:49:08 70° NE 21:54:33 19° SE
Lacrosse 5 rocket 2.2 21:46:14 10° S 21:49:28 24° SE 21:52:36 10° ENE
PSLV R/B 3.1 21:48:40 26° SSE 21:50:07 60° ENE 21:53:02 10° N
Cosmos 1408 3.6 21:46:43 10° SSW 21:50:15 47° W 21:53:47 10° N
OAO 3 Rocket 4.1 21:46:51 10° SW 21:51:10 30° S 21:53:19 22° SE
ARGOS 3.6 21:50:36 19° SE 21:54:09 47° ENE 21:59:16 10° N
AVUM R/B 3.9 21:52:33 10° NNW 21:55:58 46° ENE 21:57:23 28° ESE
SL-08 RB Rocket 4.5 21:53:47 21° ESE 21:56:14 38° ENE 22:00:33 10° N
DNEPR-1 R/B 4.4 21:52:12 10° NW 21:57:22 52° WSW 22:00:38 17° S
CZ-4 SHROUD 3.1 21:56:09 28° SSE 21:57:37 75° ENE 22:00:43 10° N
Cosmos 2218 Rocket 4.1 21:53:10 10° S 21:59:27 63° E 22:05:47 10° NNE
Cosmos 1536 Rocket 4.0 21:57:43 10° N 22:02:04 48° ENE 22:04:12 26° SE
Gbstr 26 Del rocket 3.8 22:01:58 10° NW 22:07:14 52° NNE 22:10:03 21° E
Cosmos 1959 Rocket 4.4 22:01:26 10° S 22:07:31 73° E 22:13:36 10° NNE
Cosmos 1741 Rocket 4.3 22:02:22 10° NNW 22:07:33 63° WSW 22:11:26 18° S
Cosmos 1331 Rocket 4.4 22:07:15 23° SSE 22:09:55 40° ESE 22:14:44 10° NE
Cosmos 1727 Rocket 4.1 22:05:18 10° N 22:11:26 61° E 22:15:11 24° SSE
CZ-4C R/B 4.4 22:11:59 27° ESE 22:13:10 33° ENE 22:16:56 10° N
Cosmos 1825 4.5 22:11:16 10° SW 22:14:28 25° WNW 22:17:41 10° NNW
MetOp-A 4.4 22:12:40 17° S 22:16:49 67° WSW 22:22:10 10° NNW
NOSS 8 (H) 4.4 22:17:30 23° SSW 22:19:27 60° ESE 22:23:10 10° NE
Cosmos 1110 Rocket 4.0 22:15:53 19° S 22:19:32 57° ESE 22:24:38 10° NNE
Envisat 4.3 22:15:54 10° SSW 22:20:33 36° W 22:25:14 10° NNW
ISS -0.9 22:20:01 10° WNW 22:22:44 24° NNW 22:25:27 10° NE
Cosmos 1833 Rocket 2.7 22:18:08 10° NNW 22:23:47 82° WSW 22:26:48 29° SSE
Meteor 1-20 Rocket 4.2 22:21:30 26° SSE 22:24:36 58° E 22:30:00 10° NNE
Terra 2.6 22:23:26 29° ESE 22:24:58 37° ENE 22:29:20 10° N
USA 245 3.4 22:23:58 35° S 22:25:27 74° WSW 22:29:55 10° NNW
H-2A R/B 3.9 22:24:16 10° SSW 22:27:51 26° W 22:31:24 10° NW
Abrixas 2.4 22:26:50 10° WSW 22:29:52 82° NNW 22:30:26 55° NE
SL-8 Rocket 4.4 22:24:18 10° SSW 22:30:30 64° W 22:36:42 10° N
Cosmos 1339 Rocket 4.4 22:25:13 10° N 22:31:24 73° E 22:34:38 30° SSE
Cosmos 2278 Rocket 4.2 22:28:05 10° WSW 22:33:00 29° NW 22:37:56 10° N
NOSS 3-1 (C) 4.3 22:28:21 10° NNW 22:35:45 60° NE 22:40:24 27° ESE
Cosmos 2151 Rocket 4.1 22:34:16 17° SSW 22:37:38 61° W 22:42:09 10° N
Timation 1 Rocket 4.3 22:35:02 10° SSW 22:41:03 90° WNW 22:47:06 10° NNE
Cosmos 1300 Rocket 3.6 22:41:49 49° SSE 22:42:45 63° E 22:47:09 10° NNE
CZ-4B R/B 3.6 22:39:53 10° N 22:44:47 68° WNW 22:48:15 19° SSW
Meteor 1-25 Rocket 4.3 22:40:49 19° SSW 22:45:07 81° W 22:50:58 10° N
Okean 1 3.2 22:41:38 10° N 22:45:44 80° E 22:46:23 61° SSE
USA 234 3.9 22:40:09 10° ENE 22:45:22 31° ESE 22:45:22 31° ESE
Spot 4 4.4 22:45:42 38° ESE 22:46:48 45° ENE 22:51:26 10° N
Cosmos 1486 Rocket 4.0 22:42:43 10° NNW 22:48:04 69° ENE 22:49:40 45° SE
Cosmos 1812 2.7 22:45:54 10° NNW 22:49:46 74° W 22:50:22 59° SSW
Cosmos 2082 Rocket 3.2 22:46:32 10° NW 22:51:46 38° WSW 22:54:41 23° SSW
Okean 1 Rocket 3.0 22:51:03 57° SSE 22:51:46 68° E 22:56:13 10° NNE
Genesis I 3.2 22:56:02 67° E 22:56:02 67° E 22:59:46 10° NE
Cosmos 2285 Rocket 4.5 22:57:24 38° ESE 22:58:18 39° E 23:04:10 10° NE
Lacrosse 5 1.7 22:54:06 10° SW 22:59:11 76° SE 23:04:17 10° NE
H-2A R/B 2.1 23:01:28 46° S 23:03:09 83° WSW 23:08:28 10° NNW
CZ-3C R/B 4.4 23:01:10 10° SW 23:05:02 12° SSW 23:06:05 12° SSW
Meteor 2-4 Rocket 4.2 23:02:13 10° N 23:07:26 44° ENE 23:08:24 40° ESE
Okean 1-7 Rocket 3.5 23:07:23 10° N 23:11:53 76° W 23:12:23 67° SSW
Cosmos 1302 Rocket 3.9 23:12:31 47° SSW 23:14:07 90° ESE 23:19:27 10° NNE
SL-8 R/B 4.2 23:11:11 10° WNW 23:15:56 55° NNE 23:17:32 37° ENE
BREEZE-M DEB (TANK) 4.3 23:11:38 10° WNW 23:17:39 24° WSW 23:18:15 23° SW
Cosmos 1633 3.9 23:19:12 32° NE 23:19:12 32° NE 23:21:31 10° NNE
ASTEX 1 3.3 23:18:09 10° N 23:23:09 84° W 23:23:57 63° SSW
Cosmos 1535 Rocket 4.4 23:21:59 48° S 23:23:55 82° E 23:30:21 10° N
Meteor 1-13 Rocket 4.4 23:18:43 10° NNW 23:24:40 73° W 23:26:19 49° SSW
Cosmos 1315 Rocket 4.0 23:26:58 32° NE 23:26:58 32° NE 23:29:25 10° NNE
CARTOSAT-1 4.1 23:26:57 47° WSW 23:27:15 48° W 23:31:27 10° NNW
Meteor 2-14 Rocket 4.4 23:26:35 55° SE 23:27:39 64° E 23:33:43 10° NNE
Iridium 4 Rocket 3.7 23:22:15 10° N 23:28:12 72° E 23:29:11 60° SE
Lacrosse 5 rocket 2.3 23:24:50 10° WSW 23:28:32 41° NW 23:32:06 10° NE
Meteor 2-15 4.4 23:23:00 10° N 23:29:05 66° E 23:30:12 55° SE
Cosmos 2084 Rocket 3.8 23:33:16 10° NNW 23:36:30 55° N 23:36:30 55° N
Cosmos 2369 Rocket 2.0 23:37:36 70° SSE 23:38:10 77° ESE 23:43:47 10° NNE
Meteor 1-11 Rocket 3.9 23:38:45 47° SW 23:40:25 70° WNW 23:46:10 10° N
Okean 2 4.0 23:42:51 10° N 23:46:11 51° NNE 23:46:11 51° NNE
Cosmos 1892 Rocket 3.9 23:50:12 10° N 23:53:58 64° NNW 23:53:58 64° NNW
Cosmos 1400 Rocket 3.8 23:55:34 43° WNW 23:55:34 43° WNW 23:59:19 10° N
CZ-4B R/B 4.2 23:57:03 13° NNE 23:57:03 13° NNE 23:57:39 10° NNE
